Location: Asheville, NC
(35.6000°N, 82.5500°W)
Time: 20:14:14

Vanguard 1 Rocket - Pass Details

Date: 10 March 2018
Orbit: 655 x 4222 km, 34.3° (Epoch: 19 March)

Event Time Altitude Azimuth Distance (km) Brightness Sun altitude
Rises 18:56:02 0° 242° (WSW) 3,931 11.9 -5.4°
Reaches altitude 10° 18:58:12 10° 239° (WSW) 3,237 11.3 -5.8°
Maximum altitude 19:06:27 68° 158° (SSE) 2,022 9.1 -7.5°
Enters shadow 19:22:58 10° 80° (E) 6,097 11.0 -10.9°
